Theta_e
282 282 282 282 282 281 281 281 281 281 280 280 280 279 279 278 279 278 278 278 277 278 278 278 278 278 277 277 278 277 276 276 274 276 277 278 279 279 279 279 279 278 279
283 283 282 282 282 281 280 281 281 280 281 280 280 279 279 278 278 277 277 277 277 277 277 277 277 278 276 277 276 276 276 276 275 273 275 276 277 278 277 277 277 278 277
283 282 282 281 281 280 281 281 281 279 278 279 279 278 278 278 277 277 277 277 277 277 277 276 276 277 276 275 275 274 275 276 276 274 274 276 276 276 275 275 275 276 277
282 282 281 281 281 281 280 281 281 280 278 276 275 276 276 275 277 277 278 276 276 277 278 278 277 276 275 274 274 274 275 274 274 274 273 274 273 274 274 272 272 273 272
281 280 280 281 281 280 280 280 280 280 279 278 276 275 274 275 276 274 276 275 276 276 277 278 278 276 277 277 276 274 274 273 273 272 273 272 271 271 271 272 271 271 271
279 279 280 280 280 279 279 279 279 279 279 279 277 276 274 277 280 281 280 275 276 276 275 276 276 275 276 278 278 279 278 274 273 273 273 272 272 272 272 272 271 268 266
279 279 280 279 279 279 279 279 279 278 278 278 277 276 275 276 281 282 282 277 274 272 273 274 275 276 274 275 276 277 277 277 278 276 274 273 272 272 273 272 270 268 267
279 278 278 278 278 278 277 277 276 277 274 274 274 275 274 276 282 283 282 275 271 270 270 270 271 270 271 272 271 271 272 273 275 276 276 275 274 275 275 272 269 268 267
273 274 274 275 274 274 275 272 271 272 271 273 275 275 274 276 281 282 281 272 272 270 270 270 270 270 273 276 273 270 271 272 277 279 280 279 279 278 275 270 266 264 263
269 270 271 271 272 271 271 272 271 269 272 274 275 274 274 275 279 281 280 274 269 270 266 269 276 271 276 277 274 272 270 271 273 270 269 270 271 269 273 270 268 264 262
266 267 269 269 270 271 271 270 269 269 270 271 272 273 272 270 269 279 280 276 272 269 269 270 269 277 278 279 279 276 274 275 276 268 262 265 267 266 267 265 266 265 262
264 265 265 266 268 270 269 269 268 268 269 270 269 271 270 269 272 275 278 278 278 274 271 271 269 276 278 279 278 279 279 279 265 259 264 264 263 264 264 263 263 264 264
260 261 261 264 267 269 268 268 268 269 270 270 271 271 271 270 269 277 278 278 278 276 275 274 277 278 279 278 278 278 276 265 260 257 263 263 259 264 261 261 262 261 262
258 260 263 264 264 265 267 268 268 267 268 268 269 269 270 271 271 272 272 271 274 273 273 271 273 275 276 276 273 274 267 264 262 263 263 263 262 257 261 259 261 262 261
259 260 260 261 261 263 264 265 266 267 269 269 269 270 269 268 270 274 275 274 272 271 270 270 269 269 269 270 269 269 265 264 262 263 262 260 262 260 260 258 260 260 258
258 259 259 260 260 262 262 262 267 269 270 271 272 271 271 273 275 276 276 277 278 279 276 273 271 270 269 270 269 269 267 263 262 261 260 256 259 259 259 260 259 258 257
255 257 258 259 260 260 259 259 259 262 266 268 269 270 270 271 272 273 273 274 275 275 271 271 271 272 272 271 269 267 263 263 263 260 259 260 259 259 258 258 258 258 257
252 255 256 257 258 257 258 258 258 257 257 259 263 266 268 269 269 270 271 271 266 266 266 267 268 269 270 268 265 263 263 261 260 261 261 260 258 255 256 256 257 256 256
252 254 255 255 256 256 256 257 257 257 257 257 258 261 261 265 266 267 268 261 260 260 261 263 266 268 267 260 260 261 262 260 261 260 260 259 257 255 255 256 256 256 256
251 253 254 253 254 254 255 256 256 256 256 256 256 256 258 258 258 260 261 261 261 261 261 261 262 264 264 262 260 260 261 261 261 260 259 259 257 253 255 255 255 254 255
250 251 252 253 253 254 255 255 255 255 255 255 255 257 263 261 259 258 257 257 258 259 261 262 262 263 263 258 260 261 261 261 261 260 259 257 254 252 252 254 254 254 255
250 252 252 252 254 254 254 255 255 255 255 255 256 257 262 257 256 256 257 258 259 260 261 261 262 260 259 259 261 261 260 259 260 259 258 256 252 250 249 252 253 253 255
250 250 251 252 253 253 254 254 255 255 255 255 255 256 256 256 256 257 257 258 259 259 260 261 261 261 258 260 261 261 260 259 260 258 256 251 248 249 245 251 252 253 254
249 251 251 252 252 253 253 253 254 255 255 255 255 255 256 256 256 256 257 258 259 259 260 260 260 259 259 259 259 259 259 259 258 256 252 250 250 248 247 251 252 253 253
251 251 251 252 253 254 253 254 254 254 254 254 254 255 255 256 256 257 257 258 259 259 259 259 259 259 259 258 258 257 258 259 259 256 252 247 249 248 250 252 253 254 254
251 252 253 253 253 252 252 252 253 253 253 253 254 254 255 255 256 257 258 258 258 258 258 259 259 258 258 258 257 258 258 260 258 257 252 250 250 251 252 254 255 255 257
Wind_Speed
8 8 7 7 7 6 5 4 4 3 4 3 3 2 2 1 2 2 3 3 4 4 4 4 5 5 3 4 3 2 3 3 8 9 4 8 10 9 12 11 13 13 12
7 7 7 7 7 6 5 5 5 5 3 5 3 3 4 3 2 2 3 4 4 4 4 4 5 4 4 4 3 4 5 5 6 13 9 7 9 9 11 12 11 11 12
7 8 7 7 7 7 7 6 6 5 4 3 4 5 4 4 3 3 4 4 4 4 4 4 4 4 5 4 3 5 6 7 6 8 10 7 5 7 10 10 11 11 10
7 7 7 7 7 7 6 6 6 6 5 4 4 5 5 4 4 4 5 5 5 5 5 5 5 4 5 3 6 7 8 7 8 8 9 8 6 7 9 10 11 10 13
7 7 7 7 7 6 6 6 5 6 6 5 5 5 4 4 4 5 6 5 5 6 6 6 5 4 9 11 7 7 7 7 8 8 9 9 8 9 10 10 12 13 12
6 6 6 6 6 6 5 5 5 5 5 5 6 6 6 6 13 16 11 6 6 6 7 5 5 5 8 15 15 16 14 9 11 10 10 10 12 10 9 10 11 13 12
4 4 5 5 4 4 3 3 4 5 5 6 6 6 8 9 16 18 18 6 6 6 6 6 7 6 5 6 12 17 15 18 19 15 10 10 12 12 13 10 13 12 13
4 5 6 6 5 5 4 3 3 3 3 4 5 7 7 9 19 20 20 7 6 7 7 6 7 6 7 8 8 9 10 11 12 11 10 10 11 12 10 11 11 12 12
10 9 9 8 6 5 5 4 4 3 4 4 5 7 7 11 18 20 16 5 6 8 6 7 8 7 13 18 10 9 10 11 13 22 20 23 23 24 21 10 8 9 13
9 8 7 6 6 5 4 5 3 3 5 5 9 6 7 11 15 18 15 4 6 6 5 7 16 10 18 19 12 10 12 11 10 7 5 7 10 12 20 9 7 8 9
7 6 7 6 6 5 5 3 4 5 6 7 9 9 8 7 7 17 19 8 6 5 6 6 5 18 21 21 22 10 11 13 13 2 3 4 7 7 7 4 5 5 10
7 6 7 6 6 5 5 6 5 6 7 8 6 7 5 6 10 14 18 19 16 9 9 7 6 19 22 23 19 21 25 21 2 1 5 8 7 7 7 5 6 10 10
6 6 5 6 6 7 6 6 5 5 6 7 7 7 6 4 4 15 18 19 19 14 8 12 23 24 26 22 22 20 16 1 1 1 7 8 4 8 6 7 8 9 12
5 6 6 6 8 6 5 5 5 4 6 6 7 8 8 7 5 4 5 7 12 12 14 10 14 20 24 20 12 11 2 3 4 5 7 7 6 3 6 4 9 10 11
6 5 5 5 5 7 6 5 6 5 8 8 7 7 8 9 7 16 16 8 7 11 10 9 9 9 9 9 8 6 4 4 4 4 5 5 7 6 8 4 6 9 9
8 6 6 6 6 6 7 8 12 16 18 20 22 17 10 21 26 26 27 28 28 27 12 11 11 10 11 11 9 8 5 5 4 4 4 3 6 8 9 8 7 8 11
6 8 6 6 6 7 7 8 11 11 18 18 18 21 22 22 25 26 27 28 30 27 12 11 12 11 10 8 8 5 4 4 4 4 4 5 6 7 7 9 9 9 10
5 8 6 5 6 6 7 8 8 9 12 10 12 17 20 23 24 26 26 24 12 11 10 11 12 11 9 4 2 3 3 2 3 4 5 5 5 4 8 8 8 9 10
5 5 4 5 5 6 7 7 7 8 9 10 10 12 10 21 24 24 22 7 8 9 9 11 11 9 6 2 2 2 3 4 5 5 6 5 6 5 8 8 9 12 13
5 8 6 5 5 5 6 6 7 8 9 9 9 10 9 11 10 9 7 8 9 9 9 9 9 10 8 3 2 2 3 5 5 6 7 6 5 4 8 9 8 10 10
4 5 7 6 5 6 6 7 8 8 9 9 10 10 23 14 10 10 9 8 9 9 11 10 9 9 7 3 3 5 6 6 6 6 7 6 4 4 5 6 9 9 10
5 6 5 6 7 8 8 8 9 10 10 11 11 11 23 9 9 10 10 9 9 9 9 10 10 4 3 3 5 7 7 7 7 6 6 5 4 4 4 6 8 9 10
4 5 8 7 8 9 9 8 9 9 10 11 11 11 10 9 9 10 10 10 9 9 9 9 9 7 3 4 6 7 7 7 7 5 6 5 3 4 3 7 8 9 9
5 7 9 9 8 9 9 10 9 11 11 11 10 10 11 10 10 11 10 10 10 9 9 9 8 8 8 7 6 6 6 7 6 6 6 5 5 4 4 7 7 11 10
8 9 9 9 9 9 10 11 10 10 10 10 10 10 11 11 11 10 10 10 9 9 9 9 8 10 11 11 10 10 10 14 11 5 4 5 7 7 8 7 9 9 11
9 10 10 9 9 9 9 10 10 10 10 10 10 10 11 11 11 11 10 10 8 8 9 8 10 11 12 9 10 12 13 14 12 12 7 6 7 7 7 8 12 8 11
Wind_Direction
175 178 178 180 180 181 182 200 208 206 194 199 226 253 286 315 357 4 345 338 333 329 329 335 323 323 330 313 309 328 298 278 281 298 302 308 308 324 321 324 323 322 327
169 170 178 177 177 184 196 208 205 212 221 204 216 235 258 269 300 314 315 316 316 320 322 323 317 325 325 311 326 322 301 293 293 302 307 310 309 317 314 317 316 320 319
162 171 177 185 182 193 203 206 200 186 198 224 192 229 243 246 247 266 280 288 291 295 300 298 303 315 313 306 335 311 304 302 307 296 301 305 306 314 315 311 315 312 314
170 171 181 187 191 195 200 197 197 193 188 192 210 216 222 228 226 235 250 260 269 272 278 277 277 275 285 328 310 296 297 307 299 297 300 302 308 310 306 318 317 322 320
175 176 190 194 190 185 196 200 202 202 207 198 202 222 223 219 225 227 239 237 245 259 261 265 267 264 281 283 282 274 280 288 292 295 296 303 310 322 323 321 312 319 316
178 191 190 183 182 190 194 205 213 225 225 217 220 217 228 237 247 253 244 219 241 250 262 258 253 258 269 279 282 289 282 288 288 292 292 300 310 315 316 313 319 323 321
188 192 173 166 174 191 213 222 234 238 236 237 236 219 233 235 248 254 253 231 225 233 240 255 264 258 261 270 276 281 289 288 282 289 290 299 301 307 303 308 317 310 298
95 56 46 56 51 32 18 337 314 304 263 253 250 242 240 245 252 258 258 232 222 233 235 232 241 243 242 261 257 257 256 262 270 272 269 282 281 289 299 316 305 298 289
37 38 27 18 15 10 357 334 311 307 286 266 255 256 243 255 255 261 258 228 231 238 234 233 231 238 249 273 273 269 270 269 267 281 280 292 301 307 309 309 301 310 308
20 9 5 4 2 351 328 316 291 292 286 290 284 264 256 259 254 265 265 227 235 245 243 242 249 240 257 263 258 253 264 269 274 258 276 289 294 288 296 291 289 293 305
359 351 0 356 339 320 323 330 315 308 297 289 284 283 272 255 257 267 270 253 234 244 249 255 231 256 268 270 268 254 257 270 272 299 285 291 302 286 280 250 248 260 288
351 353 348 336 333 329 327 319 312 306 295 289 279 286 262 260 241 263 275 270 259 244 247 250 241 265 272 273 277 274 274 281 35 324 309 298 285 284 280 261 258 266 254
347 344 332 327 328 341 321 309 303 293 301 305 304 297 299 282 253 270 282 281 274 268 263 256 264 268 269 273 280 281 284 129 278 285 281 275 234 277 277 282 274 265 267
349 340 336 344 345 331 323 310 316 315 314 313 310 307 309 308 301 285 260 263 272 280 287 290 278 274 269 262 257 264 214 209 211 249 266 276 279 277 284 265 293 306 303
344 333 342 338 328 325 314 313 312 298 298 299 297 291 295 293 286 283 284 270 248 244 246 248 251 253 256 254 248 240 211 211 220 241 256 268 281 289 291 284 285 298 292
347 343 335 334 324 321 323 316 313 312 315 316 312 307 303 302 307 308 305 303 296 292 268 252 249 239 242 249 235 234 202 203 220 229 244 234 278 290 291 298 290 285 293
336 323 323 317 318 326 324 318 316 317 315 317 319 316 314 310 309 307 307 304 300 301 289 280 278 276 269 243 221 201 196 202 208 229 238 261 266 276 291 296 293 289 291
301 297 301 309 316 312 308 308 306 305 313 315 315 313 312 315 314 311 311 312 310 305 296 291 286 280 279 254 204 198 206 201 218 237 254 253 252 265 289 284 285 289 294
303 295 293 296 287 291 294 292 292 295 297 301 310 311 308 313 313 311 313 310 292 288 293 292 291 296 290 219 191 188 198 214 237 244 256 257 263 255 271 276 284 286 293
284 290 296 288 286 291 286 285 299 295 294 294 298 302 311 306 300 303 310 305 290 280 277 276 280 287 286 242 228 224 235 233 244 248 255 253 248 228 273 282 282 290 292
288 285 284 288 279 283 290 292 290 289 290 291 290 290 294 305 313 310 305 295 290 292 291 288 272 270 268 228 239 258 250 249 247 253 255 253 246 258 255 264 280 283 284
276 276 281 285 289 288 283 283 284 284 282 283 290 291 299 304 291 291 291 290 288 287 291 291 298 274 234 223 257 264 255 249 252 251 251 252 244 249 254 270 280 282 286
265 282 284 279 275 278 281 279 280 282 284 285 289 292 292 288 286 287 289 290 289 288 288 289 291 288 249 255 265 263 261 258 263 251 253 250 248 255 239 270 279 284 284
262 272 277 278 279 276 277 280 278 278 285 285 287 289 289 288 286 286 287 287 285 285 284 285 283 275 271 267 269 259 248 254 256 247 232 240 254 251 251 267 270 275 279
285 279 275 275 274 281 289 286 285 286 287 287 288 287 289 290 289 288 288 287 285 284 286 285 277 275 275 269 261 258 259 268 271 235 227 223 242 247 258 264 270 274 276
277 278 281 280 281 282 281 283 283 284 284 285 285 286 288 290 289 288 288 286 287 288 285 282 280 276 274 269 265 263 261 262 258 251 231 223 241 248 248 260 269 267 289